Weather History for Baker, MT

Change the Weather History Date:

Friday, November 16, 2012

  Actual Average Record
Temperature  
Mean Temperature 36 °F -  
Max Temperature 50 °F 22 °F 66 °F (2001)
Min Temperature 21 °F -6 °F -4 °F (2000)
Degree Days  
Heating Degree Days 30    
Moisture  
Dew Point 25 °F    
Average Humidity 70    
Maximum Humidity 85    
Minimum Humidity 39    
Precipitation  
Precipitation 0.00 in - - ()
Sea Level Pressure  
Sea Level Pressure 30.05 in    
Wind  
Wind Speed 5 mph (SE)    
Max Wind Speed 12 mph    
Max Gust Speed -    
Visibility 10 miles    
Events      
Averages and records for this station are not official NWS values.
T = Trace of Precipitation, MM = Missing Value Source: NWS Daily Summary

Daily Weather History Graph

Daily Weather History Graph

Search for Another Location

Airport:

Trip Planner

Search our weather history database for the weather conditions in past years. The results will help you decide how hot, cold, wet, or windy it might be!

Date:

Astronomy

Nov. 16, 2012 Rise Set
Actual Time 7:00 AM MST 4:22 PM MST
Civil Twilight 6:27 AM MST 4:55 PM MST
Nautical Twilight 5:51 AM MST 5:32 PM MST
Astronomical Twilight 5:15 AM MST 6:07 PM MST
Moon 10:00 AM MST (11/16) 7:22 PM MST (11/16)
Length of Visible Light 10h 27m
Length of Day
9h 22m
Waxing Crescent, 12% of the Moon is Illuminated
Nov 16
Waxing Crescent
Nov 20
First Quarter
Nov 28
Full
Dec 6
Last Quarter
Dec 13
New

Hourly Weather History & Observations

Time (MST) Temp. Windchill Dew Point Humidity Pressure Visibility Wind Dir Wind Speed Gust Speed Precip Events Conditions
2:51 AM 26.1 °F 15.6 °F 21.9 °F 84% 30.11 in 10.0 mi SSE 11.5 mph - N/A   Clear
3:51 AM 26.1 °F 17.6 °F 21.9 °F 84% 30.11 in 10.0 mi SE 8.1 mph - N/A   Clear
5:51 AM 23.0 °F 17.0 °F 19.0 °F 85% 30.11 in 10.0 mi SE 4.6 mph - N/A   Clear
6:51 AM 21.9 °F 14.5 °F 18.0 °F 85% 30.10 in 10.0 mi ESE 5.8 mph - N/A   Clear
7:51 AM 26.1 °F 21.9 °F 21.9 °F 84% 30.09 in 10.0 mi ESE 3.5 mph - N/A   Clear
8:51 AM 28.9 °F 22.8 °F 23.0 °F 78% 30.07 in 10.0 mi ESE 5.8 mph - N/A   Clear
9:51 AM 37.0 °F 33.3 °F 27.0 °F 67% 30.05 in 10.0 mi ESE 4.6 mph - N/A   Clear
10:51 AM 45.0 °F - 28.0 °F 52% 30.03 in 10.0 mi Calm Calm - N/A   Clear
11:51 AM 46.9 °F - 27.0 °F 46% 30.01 in 10.0 mi Calm Calm - N/A   Clear
12:51 PM 50.0 °F - 26.1 °F 39% 30.00 in 10.0 mi West 6.9 mph - N/A   Clear
1:51 PM 46.9 °F - 27.0 °F 46% 29.99 in 10.0 mi NNW 4.6 mph - N/A   Clear
2:51 PM 46.9 °F - 28.0 °F 48% 30.00 in 10.0 mi Calm Calm - N/A   Clear
3:51 PM 41.0 °F - 28.0 °F 60% 30.02 in 10.0 mi Calm Calm - N/A   Clear
4:51 PM 35.1 °F - 27.0 °F 72% 30.04 in 10.0 mi Calm Calm - N/A   Clear
5:51 PM 33.1 °F - 26.1 °F 75% 30.05 in 10.0 mi Calm Calm - N/A   Clear
6:51 PM 34.0 °F 31.0 °F 26.1 °F 73% 30.05 in 10.0 mi South 3.5 mph - N/A   Clear
7:51 PM 34.0 °F 29.8 °F 28.0 °F 79% 30.04 in 10.0 mi ESE 4.6 mph - N/A   Mostly Cloudy
8:51 PM 34.0 °F - 28.0 °F 79% 30.04 in 10.0 mi Calm Calm - N/A   Partly Cloudy
9:51 PM 35.1 °F - 28.0 °F 76% 30.01 in 10.0 mi Calm Calm - N/A   Partly Cloudy
10:51 PM 33.1 °F - 27.0 °F 78% 30.00 in 10.0 mi Calm Calm - N/A   Mostly Cloudy